Location: Fort Worth, Tx
(32.7431°N, 97.3695°W)
Time: 05:23:10
(UTC-05:00)

Altair - Pass Details

Date: 05 October 2023
Orbit: 1501 x 1682 km, 47.2° (Epoch: 06 December)

Event Time Altitude Azimuth Distance (km) Brightness Sun altitude
Rises 02:34:22 0° 230° (SW) 4,680 - -61.7°
Reaches altitude 10° 02:37:21 10° 230° (SW) 3,719 - -61.6°
Maximum altitude 02:46:50 90° 140° (SE) 1,594 - -61.1°
Exits shadow 02:55:53 13° 53° (NE) 3,605 9.6 -60.6°
Drops below altitude 10° 02:56:45 10° 53° (NE) 3,875 9.8 -60.5°
Sets 02:59:56 0° 53° (NE) 4,884 10.5 -60.3°
